Location: Unspecified
(47.4992°N, 121.7766°W)
Time: 05:36:25
(UTC-07:00)

Okean 3 - Pass Details

Date: 08 August 2024
Orbit: 557 x 580 km, 82.5° (Epoch: 15 September)

Event Time Altitude Azimuth Distance (km) Brightness Sun altitude
Rises 02:47:46 0° 352° (N) 2,760 7.8 -23.1°
Reaches altitude 10° 02:49:58 10° 355° (N) 1,857 6.8 -22.9°
Maximum altitude 02:54:02 70° 80° (E) 598 3.5 -22.6°
Enters shadow 02:54:29 63° 124° (SE) 628 3.4 -22.6°
